COSMOS 252 DEB, 3843

Orbit data source: Space-Track

COSMOS 252 DEB, 3843 is space debris in LEO originally from a launch on Fri, 01 Nov 1968 UTC launched from the Tyuratam Missile And Space Complex (TTMTR). Debris objects in space refer to the collection of defunct objects orbiting the Earth. Examples of debris include non-operational satellites, rocket bodies, and fragments generated from explosions, collisions, or faulty payload assembly.

Loading next visibility...
Identifier
3843, 1968-097BG
Orbit
LEO
Country
Flag of CISCIS
Related business
Manufacturer
Unknown
Mission
Spacecraft
Bus & Motor
Unknown
Mass
Unknown
Launch date (UTC)
1968-11-01 (57 years ago)
Launch vehicle
Unknown
Launch site
Tyuratam Missile And Space Complex (TTMTR)
Object type
Payload
Rocket body
Debris
Shape & HBR
Unknown shape, 0.1 m
Radar Cross Section
Small (<0.1 m²)

Expand to show TLE details & history
Last TLE update: 12 hours ago

TLE from 12 hours ago
0 COSMOS 252 DEB
1 03843U 68097BG  25288.52525571  .00001220  00000-0  12998-2 0  9991
2 03843  62.2652 351.2871 0692993  57.3076 309.2824 13.03305777635419
Epoch: 2025-10-15T12:36Z
TLE epoch observation values (Epoch: 2025-10-15T12:36:22.093Z)
Latitude
-0.00004°
Longitude
137.89695°
Altitude
939.539 km
Speed
7.532 km/s
True Right ascension
23h 25m 08s
True Declination
0° 00' 00"
Sunlit
Object was in full shadow at epoch
Visualization orbit readout
Latitude
Unknown
Longitude
Unknown
Altitude
Unknown
Speed
Unknown
Apparent Right ascension
Unknown
Apparent Declination
Unknown
Sunlit
N/A
Visualization observer readout
Local Sidereal Time
18:58:44
Azimuth
Unknown
Elevation
Unknown
Doppler factor
Unknown
Orbital elements
Apogee altitude
1,776.648 km
Perigee altitude
719.655 km
Semi-major axis
7,626.289 km
Eccentricity
0.0693
Inclination
62.2652°
RAAN
351.2871°
Arg. of periapsis
57.3076°
True anomaly
302.7939°
Mean anomaly
309.2824°
Eccentric anomaly
306.07313°
Mean motion
3.25892 °/min
Orbital period
110.47 mins
BSTAR
0.0012998
Loading maneuver chart data...
Computing Atmospheric mass density...

Documentation

Showing up to 5 results
|